{"data":{"norad_id":60118,"epoch":"2026-05-25T03:52:25.112064Z","epoch_age_seconds":64269,"freshness":"FRESH","line1":"1 60118U 24118F   26145.16140176  .00000104  00000+0  57194-5 0  9991","line2":"2 60118  53.1590 204.3143 0001069  75.9774 284.1362 15.69705804110006","mean_motion":15.69705804,"eccentricity":0.0001069,"inclination_deg":53.159,"raan_deg":204.3143,"arg_perigee_deg":75.9774,"mean_anomaly_deg":284.1362,"bstar":5.7194e-6,"rev_number":11000,"period_min":91.736935439146,"perigee_km":359.01847887388,"apogee_km":360.45903671089,"semimajor_km":6737.8757577924,"source":"CELESTRAK","updated_at":"2026-05-25T13:38:19.166307Z"}}